Flag for Comoros Weather past 2 weeks in Moroni, Comoros

Now
84 °F

Scattered clouds.


Feels Like: 86 °F
Forecast: 75 / 85 °F
Wind: 12 mph from Southwest

Location: Hahaya International Airport

Current Time: Jul 4, 2015 at 12:37:34 PM

Latest Report: Jul 4, 2015 at 12:00 PM


Visibility: N/A

Pressure: 30.12 "Hg

Humidity: 51%

Dew point: 64 °F

Location of MoroniLocation

Historic Weather in Moroni — Graph

°F

Moroni temperature yesterday

Maximum temperature yesterday: 84 °F (at 12:00 PM)
Minimum temperature yesterday: 73 °F (at 6:00 AM)
Average temperature yesterday: 77 °F

Past Weeks' High & Low Weather Summary

 TemperatureHumidityPressure
High88 °F (Jun 22, 2:00 PM)100% (Jul 3, 6:00 PM)30.15 "Hg (Jul 3, 6:00 PM)
Low68 °F (Jul 1, 6:00 AM)52% (Jun 25, 12:00 PM)29.95 "Hg (Jun 20, 6:00 PM)
Average81 °F75%30.06 "Hg
* Reported Jun 19 11:00 AM — Jul 4 11:00 AM, Moroni, Weather by CustomWeather, © 2015

Note: Actual official high and low records may vary slightly from our data, if they occured in-between our weather recording intervals... More about our weather records

Advertising

Moroni weather history for previous 24 hours

 ConditionsComfort  
Time TempWeatherWind HumidityBarometerVisibility
11:00 AM
Sat, Jul 4
82 °FScattered clouds.6 mph55%30.12 "HgN/A
10:00 AM81 °FPassing clouds.5 mph74%30.12 "HgN/A
9:00 AM81 °FPassing clouds.2 mph74%30.12 "HgN/A
8:00 AM77 °FPassing clouds.2 mph74%30.12 "HgN/A
7:00 AM75 °FPassing clouds.2 mph78%30.09 "HgN/A
6:00 AM73 °FPassing clouds.3 mph83%30.09 "HgN/A
1:00 AM73 °FPassing clouds.3 mph89%30.09 "HgN/A
12:00 AM73 °FPassing clouds.13 mph83%30.12 "HgN/A
11:00 PM
Fri, Jul 3
73 °FPassing clouds.5 mph78%30.12 "HgN/A
10:00 PM73 °FPassing clouds.6 mph83%30.12 "HgN/A
9:00 PM75 °FPassing clouds.8 mph83%30.12 "HgN/A
8:00 PM77 °FPassing clouds.1 mph83%30.09 "HgN/A
7:00 PM77 °FPassing clouds.6 mph94%30.07 "HgN/A
6:00 PM77 °FLight rain. Partly cloudy.5 mph100%30.07 "HgN/A
5:00 PM81 °FScattered clouds.12 mph84%30.07 "HgN/A
4:00 PM81 °FScattered clouds.12 mph70%30.07 "HgN/A
3:00 PM81 °FPartly sunny.13 mph70%30.07 "HgN/A
2:00 PM81 °FPartly sunny.12 mph66%30.07 "HgN/A
1:00 PM79 °FPartly sunny.10 mph74%30.09 "HgN/A
12:00 PM84 °FBroken clouds.13 mph62%30.12 "HgN/A
Weather by CustomWeather, © 2015

See weather overviewHow to use our weather pages